QPF
0.02 0.02 0.03 0.03 0.02 0.02 0.02 0.02 0.02 0.01 0.01 0.05 0.09 0.05 0.05 0.06 0.04 0.03 0.03 0.02 0.03 0.03 0.03 0.05 0.08 0.11 0.12 0.12 0.13 0.13 0.10 0.15 0.13 0.10 0.09 0.06 0.05 0.05 0.07 0.08 0.07 0.06 0.04
0.02 0.02 0.03 0.03 0.02 0.02 0.02 0.02 0.02 0.03 0.04 0.08 0.11 0.10 0.09 0.06 0.05 0.04 0.02 0.02 0.04 0.04 0.04 0.04 0.06 0.08 0.12 0.12 0.13 0.13 0.11 0.15 0.16 0.11 0.10 0.09 0.07 0.07 0.08 0.08 0.08 0.08 0.07
0.02 0.02 0.02 0.02 0.02 0.03 0.02 0.02 0.03 0.06 0.10 0.14 0.13 0.10 0.06 0.04 0.04 0.03 0.03 0.04 0.05 0.04 0.05 0.06 0.09 0.08 0.09 0.10 0.14 0.14 0.14 0.14 0.14 0.14 0.14 0.13 0.11 0.09 0.09 0.08 0.08 0.08 0.07
0.03 0.03 0.03 0.02 0.01 0.03 0.03 0.02 0.02 0.03 0.05 0.07 0.07 0.05 0.04 0.03 0.03 0.04 0.05 0.06 0.06 0.05 0.06 0.08 0.09 0.09 0.08 0.09 0.12 0.13 0.14 0.13 0.16 0.17 0.17 0.15 0.14 0.12 0.11 0.10 0.11 0.08 0.09
0.02 0.02 0.03 0.02 0.01 0.02 0.02 0.02 0.02 0.03 0.03 0.04 0.04 0.04 0.04 0.03 0.03 0.04 0.05 0.06 0.07 0.06 0.06 0.06 0.07 0.09 0.10 0.09 0.08 0.09 0.12 0.15 0.16 0.16 0.14 0.13 0.15 0.13 0.11 0.12 0.11 0.09 0.10
0.02 0.02 0.04 0.02 0.01 0.02 0.02 0.02 0.02 0.02 0.02 0.02 0.03 0.04 0.05 0.05 0.04 0.03 0.05 0.06 0.08 0.10 0.10 0.09 0.10 0.10 0.12 0.11 0.10 0.12 0.12 0.13 0.14 0.14 0.12 0.12 0.14 0.15 0.13 0.13 0.13 0.13 0.11
0.01 0.01 0.02 0.02 0.02 0.02 0.02 0.02 0.02 0.03 0.03 0.03 0.03 0.05 0.06 0.05 0.03 0.03 0.04 0.05 0.05 0.08 0.13 0.13 0.13 0.13 0.13 0.13 0.12 0.12 0.10 0.09 0.09 0.10 0.10 0.09 0.12 0.14 0.14 0.16 0.15 0.13 0.09
0.01 0.01 0.01 0.02 0.02 0.02 0.02 0.01 0.02 0.02 0.02 0.02 0.04 0.12 0.14 0.08 0.04 0.03 0.03 0.03 0.04 0.05 0.07 0.07 0.07 0.07 0.08 0.10 0.11 0.12 0.11 0.08 0.06 0.06 0.06 0.09 0.08 0.09 0.08 0.10 0.13 0.13 0.10
0.00 0.00 0.01 0.01 0.01 0.01 0.01 0.01 0.01 0.02 0.02 0.03 0.05 0.08 0.15 0.12 0.07 0.07 0.05 0.03 0.03 0.04 0.05 0.05 0.05 0.05 0.04 0.08 0.15 0.14 0.13 0.11 0.06 0.05 0.04 0.08 0.06 0.07 0.06 0.07 0.08 0.09 0.10
0.00 0.00 0.01 0.01 0.01 0.01 0.01 0.01 0.01 0.01 0.02 0.04 0.05 0.05 0.09 0.09 0.09 0.06 0.04 0.05 0.04 0.05 0.05 0.04 0.04 0.04 0.04 0.06 0.14 0.18 0.15 0.11 0.05 0.03 0.05 0.05 0.04 0.06 0.06 0.07 0.07 0.08 0.08
0.00 0.01 0.01 0.01 0.01 0.01 0.01 0.02 0.02 0.01 0.01 0.02 0.03 0.04 0.04 0.06 0.05 0.04 0.03 0.04 0.05 0.05 0.05 0.04 0.04 0.05 0.05 0.04 0.05 0.09 0.10 0.07 0.04 0.04 0.05 0.03 0.03 0.06 0.06 0.07 0.07 0.08 0.07
0.00 0.00 0.00 0.00 0.00 0.00 0.01 0.03 0.03 0.01 0.01 0.02 0.03 0.03 0.02 0.03 0.03 0.02 0.01 0.03 0.04 0.04 0.06 0.07 0.08 0.06 0.05 0.04 0.03 0.03 0.05 0.04 0.04 0.04 0.04 0.02 0.03 0.05 0.07 0.08 0.08 0.08 0.08
0.00 0.00 0.00 0.00 0.00 0.00 0.01 0.02 0.03 0.03 0.03 0.02 0.02 0.02 0.02 0.02 0.02 0.01 0.02 0.02 0.03 0.05 0.05 0.06 0.11 0.11 0.09 0.08 0.06 0.05 0.05 0.04 0.04 0.04 0.03 0.02 0.03 0.04 0.06 0.08 0.10 0.10 0.10
0.00 0.00 0.00 0.00 0.00 0.00 0.01 0.01 0.03 0.04 0.02 0.02 0.02 0.02 0.02 0.02 0.02 0.02 0.01 0.02 0.03 0.06 0.09 0.08 0.15 0.17 0.13 0.09 0.06 0.05 0.05 0.06 0.05 0.06 0.04 0.04 0.04 0.05 0.05 0.07 0.10 0.12 0.12
0.00 0.00 0.00 0.00 0.00 0.00 0.01 0.02 0.02 0.02 0.02 0.02 0.02 0.02 0.02 0.03 0.03 0.03 0.02 0.02 0.02 0.04 0.11 0.16 0.19 0.19 0.15 0.11 0.07 0.06 0.06 0.05 0.05 0.05 0.04 0.04 0.04 0.05 0.06 0.07 0.10 0.11 0.11
0.00 0.00 0.00 0.00 0.00 0.00 0.01 0.01 0.01 0.01 0.02 0.03 0.03 0.02 0.02 0.02 0.02 0.03 0.02 0.02 0.03 0.03 0.09 0.15 0.18 0.18 0.15 0.13 0.10 0.08 0.06 0.06 0.06 0.05 0.04 0.05 0.06 0.06 0.06 0.06 0.07 0.09 0.10
0.00 0.00 0.00 0.00 0.00 0.00 0.00 0.01 0.01 0.01 0.01 0.02 0.03 0.03 0.02 0.02 0.02 0.03 0.02 0.02 0.03 0.03 0.06 0.10 0.11 0.11 0.11 0.09 0.08 0.06 0.06 0.06 0.05 0.05 0.04 0.05 0.07 0.07 0.07 0.06 0.06 0.07 0.10
0.00 0.00 0.00 0.00 0.00 0.00 0.00 0.01 0.02 0.02 0.02 0.02 0.03 0.02 0.01 0.01 0.02 0.02 0.02 0.02 0.03 0.03 0.03 0.06 0.08 0.09 0.08 0.07 0.07 0.07 0.06 0.04 0.03 0.04 0.06 0.07 0.07 0.07 0.07 0.05 0.05 0.05 0.06
0.00 0.00 0.00 0.00 0.00 0.00 0.00 0.02 0.06 0.05 0.04 0.02 0.03 0.02 0.02 0.02 0.02 0.02 0.02 0.02 0.02 0.04 0.04 0.03 0.04 0.05 0.06 0.06 0.07 0.08 0.07 0.04 0.03 0.04 0.07 0.08 0.06 0.05 0.05 0.04 0.04 0.05 0.04
0.00 0.01 0.01 0.00 0.00 0.00 0.00 0.01 0.04 0.07 0.06 0.04 0.03 0.03 0.03 0.03 0.03 0.02 0.02 0.02 0.02 0.04 0.04 0.04 0.04 0.04 0.05 0.05 0.05 0.07 0.07 0.06 0.05 0.06 0.07 0.08 0.06 0.04 0.03 0.03 0.05 0.05 0.04
0.00 0.00 0.00 0.00 0.00 0.00 0.01 0.01 0.03 0.05 0.06 0.06 0.04 0.03 0.03 0.03 0.03 0.03 0.02 0.02 0.02 0.02 0.03 0.04 0.04 0.04 0.06 0.06 0.06 0.08 0.08 0.07 0.05 0.05 0.06 0.08 0.06 0.04 0.04 0.04 0.04 0.05 0.05
0.00 0.00 0.00 0.00 0.00 0.00 0.01 0.01 0.02 0.03 0.03 0.04 0.04 0.03 0.03 0.03 0.02 0.02 0.02 0.02 0.02 0.03 0.04 0.04 0.05 0.05 0.04 0.04 0.05 0.08 0.08 0.06 0.05 0.03 0.04 0.05 0.06 0.05 0.04 0.04 0.03 0.03 0.04
0.00 0.00 0.00 0.00 0.00 0.01 0.02 0.03 0.03 0.03 0.01 0.02 0.03 0.03 0.03 0.03 0.02 0.01 0.02 0.01 0.02 0.02 0.04 0.05 0.05 0.05 0.06 0.05 0.04 0.06 0.07 0.07 0.06 0.05 0.05 0.05 0.05 0.05 0.04 0.04 0.04 0.04 0.04
0.00 0.00 0.00 0.00 0.00 0.01 0.02 0.05 0.06 0.04 0.02 0.01 0.02 0.02 0.02 0.02 0.02 0.01 0.01 0.01 0.02 0.02 0.03 0.03 0.04 0.05 0.06 0.06 0.05 0.05 0.06 0.06 0.07 0.07 0.06 0.05 0.04 0.05 0.06 0.05 0.04 0.05 0.04
0.00 0.00 0.00 0.01 0.01 0.02 0.02 0.03 0.05 0.04 0.03 0.02 0.01 0.02 0.02 0.02 0.02 0.01 0.01 0.02 0.03 0.03 0.03 0.03 0.05 0.05 0.04 0.05 0.06 0.06 0.07 0.07 0.06 0.07 0.07 0.06 0.05 0.04 0.05 0.05 0.06 0.05 0.03
0.00 0.00 0.00 0.01 0.03 0.03 0.03 0.02 0.03 0.04 0.04 0.03 0.02 0.02 0.03 0.02 0.02 0.02 0.02 0.03 0.04 0.04 0.03 0.04 0.04 0.04 0.04 0.05 0.07 0.05 0.06 0.06 0.06 0.05 0.05 0.05 0.05 0.04 0.05 0.05 0.04 0.02 0.02
MSLP
1016.13 1015.61 1015.18 1014.91 1014.79 1014.82 1014.92 1015.04 1015.13 1015.17 1015.17 1015.16 1015.18 1015.26 1015.40 1015.58 1015.78 1015.95 1016.05 1016.08 1016.05 1015.98 1015.92 1015.90 1015.92 1016.01 1016.11 1016.22 1016.29 1016.30 1016.27 1016.19 1016.10 1016.04 1016.03 1016.08 1016.17 1016.31 1016.45 1016.59 1016.69 1016.77 1016.83
1016.56 1016.10 1015.72 1015.46 1015.34 1015.34 1015.40 1015.47 1015.50 1015.48 1015.44 1015.40 1015.41 1015.47 1015.61 1015.79 1015.98 1016.13 1016.22 1016.22 1016.17 1016.09 1016.03 1016.02 1016.08 1016.19 1016.33 1016.45 1016.53 1016.53 1016.47 1016.37 1016.26 1016.18 1016.16 1016.22 1016.34 1016.51 1016.69 1016.85 1016.98 1017.07 1017.12
1016.89 1016.49 1016.14 1015.90 1015.80 1015.79 1015.84 1015.89 1015.90 1015.87 1015.81 1015.76 1015.74 1015.79 1015.91 1016.06 1016.21 1016.31 1016.35 1016.32 1016.24 1016.15 1016.09 1016.10 1016.19 1016.33 1016.49 1016.62 1016.69 1016.67 1016.58 1016.43 1016.29 1016.20 1016.18 1016.25 1016.41 1016.61 1016.83 1017.04 1017.20 1017.30 1017.36
1017.09 1016.73 1016.42 1016.22 1016.14 1016.16 1016.22 1016.28 1016.31 1016.28 1016.23 1016.18 1016.16 1016.20 1016.28 1016.38 1016.47 1016.52 1016.50 1016.42 1016.32 1016.22 1016.18 1016.21 1016.32 1016.48 1016.65 1016.77 1016.81 1016.76 1016.62 1016.43 1016.26 1016.14 1016.12 1016.22 1016.41 1016.65 1016.92 1017.16 1017.35 1017.49 1017.57
1017.19 1016.86 1016.59 1016.42 1016.37 1016.42 1016.52 1016.62 1016.68 1016.69 1016.66 1016.62 1016.60 1016.62 1016.66 1016.72 1016.75 1016.74 1016.68 1016.57 1016.45 1016.35 1016.32 1016.38 1016.51 1016.68 1016.84 1016.94 1016.94 1016.84 1016.65 1016.41 1016.21 1016.07 1016.06 1016.17 1016.40 1016.68 1016.99 1017.27 1017.49 1017.65 1017.75
1017.22 1016.91 1016.66 1016.53 1016.52 1016.61 1016.75 1016.89 1016.98 1017.02 1017.02 1017.00 1016.98 1016.98 1017.01 1017.02 1017.02 1016.97 1016.87 1016.75 1016.62 1016.54 1016.54 1016.61 1016.76 1016.93 1017.08 1017.14 1017.09 1016.93 1016.68 1016.41 1016.17 1016.03 1016.03 1016.16 1016.42 1016.74 1017.08 1017.38 1017.62 1017.80 1017.91
1017.23 1016.94 1016.71 1016.61 1016.63 1016.76 1016.92 1017.08 1017.19 1017.25 1017.26 1017.25 1017.23 1017.23 1017.24 1017.24 1017.21 1017.15 1017.04 1016.92 1016.82 1016.76 1016.78 1016.88 1017.03 1017.20 1017.32 1017.34 1017.24 1017.02 1016.73 1016.42 1016.16 1016.02 1016.03 1016.20 1016.48 1016.83 1017.19 1017.51 1017.76 1017.93 1018.04
1017.29 1017.00 1016.80 1016.72 1016.76 1016.89 1017.05 1017.21 1017.31 1017.36 1017.37 1017.35 1017.33 1017.32 1017.32 1017.31 1017.28 1017.22 1017.13 1017.03 1016.95 1016.93 1016.97 1017.09 1017.25 1017.40 1017.49 1017.47 1017.33 1017.07 1016.74 1016.41 1016.15 1016.03 1016.07 1016.26 1016.57 1016.95 1017.32 1017.64 1017.88 1018.04 1018.13
1017.44 1017.16 1016.98 1016.91 1016.96 1017.07 1017.20 1017.31 1017.37 1017.38 1017.34 1017.29 1017.26 1017.23 1017.23 1017.23 1017.22 1017.17 1017.10 1017.02 1016.97 1016.97 1017.04 1017.16 1017.32 1017.46 1017.53 1017.48 1017.31 1017.02 1016.68 1016.35 1016.10 1016.00 1016.07 1016.30 1016.64 1017.04 1017.42 1017.74 1017.97 1018.10 1018.17
1017.71 1017.46 1017.29 1017.23 1017.26 1017.33 1017.40 1017.43 1017.41 1017.34 1017.24 1017.15 1017.08 1017.04 1017.04 1017.04 1017.03 1017.00 1016.94 1016.88 1016.84 1016.85 1016.93 1017.06 1017.21 1017.34 1017.39 1017.33 1017.15 1016.86 1016.52 1016.21 1015.98 1015.91 1016.02 1016.28 1016.66 1017.07 1017.47 1017.78 1017.99 1018.10 1018.16
1018.10 1017.87 1017.73 1017.67 1017.67 1017.68 1017.67 1017.61 1017.49 1017.32 1017.15 1016.99 1016.88 1016.82 1016.80 1016.80 1016.80 1016.76 1016.71 1016.64 1016.60 1016.60 1016.66 1016.78 1016.92 1017.04 1017.09 1017.03 1016.85 1016.58 1016.27 1015.98 1015.79 1015.76 1015.90 1016.19 1016.58 1017.02 1017.42 1017.73 1017.94 1018.04 1018.08
1018.58 1018.40 1018.28 1018.22 1018.18 1018.13 1018.03 1017.86 1017.63 1017.36 1017.11 1016.90 1016.75 1016.66 1016.63 1016.62 1016.59 1016.54 1016.46 1016.36 1016.29 1016.26 1016.29 1016.39 1016.52 1016.63 1016.68 1016.64 1016.48 1016.24 1015.96 1015.71 1015.55 1015.54 1015.70 1016.01 1016.42 1016.86 1017.27 1017.60 1017.81 1017.92 1017.97
1019.10 1018.97 1018.88 1018.82 1018.75 1018.63 1018.44 1018.17 1017.85 1017.51 1017.18 1016.92 1016.74 1016.64 1016.59 1016.55 1016.50 1016.41 1016.29 1016.14 1016.01 1015.92 1015.91 1015.97 1016.08 1016.19 1016.25 1016.23 1016.11 1015.91 1015.66 1015.44 1015.30 1015.30 1015.47 1015.77 1016.17 1016.62 1017.04 1017.38 1017.61 1017.75 1017.82
1019.62 1019.53 1019.47 1019.41 1019.31 1019.14 1018.88 1018.54 1018.15 1017.74 1017.38 1017.09 1016.90 1016.78 1016.71 1016.66 1016.57 1016.43 1016.25 1016.03 1015.83 1015.68 1015.60 1015.62 1015.70 1015.80 1015.88 1015.89 1015.80 1015.64 1015.42 1015.22 1015.09 1015.08 1015.22 1015.50 1015.89 1016.32 1016.73 1017.09 1017.36 1017.53 1017.63
1020.08 1020.04 1020.00 1019.94 1019.82 1019.60 1019.29 1018.91 1018.48 1018.05 1017.67 1017.39 1017.19 1017.07 1017.00 1016.92 1016.80 1016.61 1016.36 1016.07 1015.79 1015.57 1015.43 1015.39 1015.43 1015.53 1015.61 1015.64 1015.59 1015.46 1015.27 1015.07 1014.93 1014.89 1014.99 1015.22 1015.56 1015.97 1016.38 1016.75 1017.04 1017.26 1017.41
1020.44 1020.43 1020.41 1020.35 1020.21 1019.98 1019.65 1019.24 1018.81 1018.38 1018.02 1017.75 1017.57 1017.46 1017.39 1017.29 1017.14 1016.91 1016.59 1016.24 1015.89 1015.59 1015.39 1015.29 1015.29 1015.36 1015.44 1015.48 1015.45 1015.34 1015.16 1014.97 1014.80 1014.72 1014.77 1014.94 1015.22 1015.58 1015.97 1016.34 1016.67 1016.93 1017.14
1020.69 1020.70 1020.70 1020.63 1020.49 1020.25 1019.92 1019.52 1019.10 1018.70 1018.36 1018.12 1017.96 1017.86 1017.78 1017.67 1017.49 1017.22 1016.87 1016.46 1016.05 1015.69 1015.42 1015.27 1015.23 1015.26 1015.32 1015.35 1015.33 1015.22 1015.05 1014.85 1014.66 1014.54 1014.52 1014.62 1014.84 1015.15 1015.51 1015.88 1016.22 1016.53 1016.79
1020.84 1020.87 1020.87 1020.80 1020.66 1020.42 1020.10 1019.73 1019.34 1018.97 1018.67 1018.44 1018.29 1018.19 1018.10 1017.97 1017.78 1017.48 1017.10 1016.66 1016.21 1015.80 1015.48 1015.27 1015.17 1015.15 1015.17 1015.18 1015.14 1015.04 1014.86 1014.66 1014.45 1014.28 1014.21 1014.25 1014.41 1014.66 1014.98 1015.34 1015.70 1016.04 1016.35
1020.94 1020.97 1020.97 1020.90 1020.76 1020.54 1020.24 1019.90 1019.54 1019.20 1018.90 1018.68 1018.52 1018.40 1018.28 1018.13 1017.91 1017.61 1017.21 1016.76 1016.30 1015.86 1015.49 1015.23 1015.06 1014.98 1014.94 1014.91 1014.84 1014.72 1014.55 1014.33 1014.11 1013.93 1013.83 1013.82 1013.92 1014.12 1014.41 1014.75 1015.11 1015.47 1015.82
1021.01 1021.05 1021.04 1020.97 1020.84 1020.64 1020.37 1020.05 1019.72 1019.38 1019.08 1018.83 1018.63 1018.47 1018.31 1018.12 1017.88 1017.57 1017.18 1016.74 1016.28 1015.83 1015.43 1015.11 1014.88 1014.72 1014.61 1014.52 1014.41 1014.27 1014.09 1013.88 1013.66 1013.48 1013.36 1013.32 1013.39 1013.55 1013.80 1014.12 1014.47 1014.84 1015.22
1021.09 1021.12 1021.12 1021.06 1020.95 1020.76 1020.52 1020.22 1019.89 1019.55 1019.22 1018.92 1018.66 1018.42 1018.20 1017.97 1017.70 1017.39 1017.01 1016.59 1016.15 1015.71 1015.29 1014.93 1014.63 1014.39 1014.20 1014.03 1013.88 1013.71 1013.52 1013.32 1013.12 1012.96 1012.84 1012.79 1012.84 1012.97 1013.19 1013.48 1013.82 1014.19 1014.58
1021.18 1021.22 1021.23 1021.18 1021.08 1020.92 1020.70 1020.41 1020.08 1019.72 1019.34 1018.97 1018.62 1018.29 1017.99 1017.70 1017.41 1017.09 1016.74 1016.36 1015.95 1015.53 1015.11 1014.72 1014.36 1014.04 1013.77 1013.53 1013.31 1013.11 1012.91 1012.72 1012.55 1012.41 1012.31 1012.27 1012.31 1012.42 1012.61 1012.87 1013.19 1013.55 1013.95
1021.27 1021.34 1021.35 1021.32 1021.23 1021.09 1020.88 1020.61 1020.28 1019.88 1019.45 1018.99 1018.55 1018.13 1017.74 1017.39 1017.06 1016.74 1016.43 1016.09 1015.73 1015.34 1014.93 1014.52 1014.11 1013.73 1013.38 1013.06 1012.79 1012.55 1012.34 1012.16 1012.01 1011.90 1011.82 1011.80 1011.83 1011.92 1012.09 1012.32 1012.61 1012.96 1013.36
1021.35 1021.43 1021.46 1021.43 1021.36 1021.23 1021.04 1020.78 1020.43 1020.01 1019.52 1018.99 1018.46 1017.95 1017.48 1017.07 1016.71 1016.40 1016.10 1015.82 1015.51 1015.16 1014.78 1014.36 1013.92 1013.48 1013.07 1012.69 1012.35 1012.08 1011.85 1011.67 1011.54 1011.45 1011.39 1011.37 1011.40 1011.48 1011.62 1011.82 1012.09 1012.43 1012.82
1021.38 1021.48 1021.52 1021.49 1021.42 1021.30 1021.12 1020.86 1020.51 1020.06 1019.53 1018.95 1018.34 1017.76 1017.22 1016.75 1016.37 1016.06 1015.79 1015.55 1015.29 1014.98 1014.63 1014.22 1013.77 1013.29 1012.83 1012.39 1012.01 1011.70 1011.45 1011.26 1011.13 1011.04 1011.00 1010.98 1011.01 1011.07 1011.19 1011.37 1011.61 1011.93 1012.32
1021.35 1021.47 1021.49 1021.47 1021.39 1021.27 1021.08 1020.82 1020.47 1020.01 1019.46 1018.84 1018.18 1017.54 1016.96 1016.46 1016.05 1015.73 1015.48 1015.27 1015.04 1014.77 1014.45 1014.05 1013.59 1013.10 1012.60 1012.13 1011.71 1011.36 1011.09 1010.88 1010.74 1010.65 1010.60 1010.58 1010.59 1010.64 1010.74 1010.90 1011.13 1011.44 1011.83
Thickness
5803 5800 5787 5784 5782 5780 5779 5777 5776 5776 5775 5774 5773 5773 5772 5772 5772 5772 5772 5772 5772 5773 5773 5772 5772 5771 5770 5770 5769 5769 5768 5767 5767 5766 5766 5765 5764 5763 5763 5762 5762 5762 5760
5806 5799 5787 5784 5781 5779 5777 5776 5775 5775 5773 5771 5771 5770 5770 5770 5770 5770 5771 5770 5770 5771 5771 5771 5770 5769 5769 5768 5768 5767 5767 5766 5765 5765 5765 5764 5763 5762 5761 5761 5761 5760 5758
5804 5797 5788 5783 5780 5778 5776 5775 5774 5773 5771 5770 5769 5768 5768 5768 5767 5767 5768 5768 5768 5769 5769 5769 5768 5768 5767 5767 5766 5766 5765 5765 5764 5764 5765 5766 5764 5760 5759 5759 5758 5757 5756
5802 5797 5790 5782 5779 5777 5775 5774 5772 5771 5770 5768 5767 5766 5766 5765 5765 5765 5766 5766 5766 5766 5766 5766 5766 5766 5765 5765 5765 5764 5764 5763 5763 5764 5766 5766 5764 5759 5758 5757 5756 5755 5754
5799 5795 5788 5782 5779 5776 5774 5773 5771 5770 5768 5767 5765 5765 5764 5763 5763 5763 5763 5763 5763 5764 5764 5764 5764 5764 5764 5763 5763 5763 5762 5762 5762 5763 5765 5764 5762 5758 5756 5755 5754 5753 5752
5799 5795 5787 5780 5777 5775 5773 5771 5769 5768 5767 5765 5764 5763 5762 5762 5761 5761 5761 5761 5761 5762 5762 5762 5762 5762 5761 5762 5761 5761 5761 5762 5763 5765 5763 5763 5760 5757 5755 5754 5753 5752 5751
5799 5796 5788 5780 5776 5774 5772 5770 5768 5766 5765 5764 5763 5761 5761 5760 5759 5759 5759 5759 5759 5759 5759 5759 5760 5760 5759 5759 5759 5759 5759 5760 5764 5764 5763 5761 5758 5755 5754 5752 5751 5751 5750
5799 5795 5787 5779 5776 5773 5771 5769 5767 5765 5764 5763 5762 5760 5760 5759 5758 5758 5758 5758 5758 5757 5757 5757 5757 5758 5758 5757 5758 5758 5758 5758 5762 5763 5762 5759 5755 5753 5752 5751 5750 5749 5748
5798 5794 5789 5783 5778 5773 5771 5768 5766 5764 5763 5762 5761 5760 5759 5758 5757 5757 5756 5756 5756 5756 5756 5755 5755 5756 5756 5756 5756 5757 5758 5758 5761 5761 5760 5757 5753 5751 5750 5749 5748 5747 5746
5796 5793 5790 5786 5782 5778 5774 5768 5766 5764 5762 5761 5760 5759 5759 5758 5757 5756 5756 5755 5754 5754 5754 5754 5754 5754 5754 5754 5754 5756 5757 5757 5759 5760 5758 5755 5751 5749 5748 5747 5746 5745 5745
5792 5791 5789 5786 5782 5779 5776 5770 5767 5764 5763 5762 5761 5759 5759 5761 5760 5757 5755 5753 5752 5752 5752 5752 5752 5753 5753 5753 5752 5753 5754 5757 5758 5757 5755 5752 5749 5747 5746 5745 5744 5743 5743
5789 5789 5788 5784 5781 5779 5775 5771 5769 5768 5765 5763 5762 5760 5760 5759 5758 5756 5753 5752 5751 5751 5751 5751 5751 5753 5755 5756 5754 5753 5755 5755 5756 5755 5752 5748 5746 5745 5744 5743 5743 5742 5741
5790 5788 5787 5783 5780 5778 5775 5772 5770 5768 5765 5763 5760 5759 5758 5758 5757 5756 5755 5753 5752 5751 5752 5752 5754 5755 5756 5756 5756 5755 5754 5754 5754 5753 5750 5746 5744 5743 5742 5742 5741 5740 5740
5789 5787 5786 5783 5778 5775 5773 5771 5768 5767 5765 5763 5760 5758 5758 5757 5756 5754 5753 5753 5753 5752 5751 5752 5752 5753 5753 5754 5754 5753 5752 5752 5752 5751 5747 5744 5742 5741 5741 5740 5739 5739 5738
5788 5786 5784 5781 5777 5773 5770 5768 5767 5765 5764 5761 5758 5756 5755 5755 5754 5753 5752 5751 5752 5751 5750 5750 5751 5751 5750 5751 5751 5750 5750 5749 5749 5748 5745 5742 5740 5740 5739 5738 5738 5737 5736
5788 5785 5784 5779 5775 5772 5769 5766 5765 5764 5760 5760 5757 5755 5753 5753 5752 5751 5750 5749 5749 5748 5748 5747 5747 5747 5748 5747 5747 5747 5747 5746 5745 5744 5744 5742 5739 5738 5737 5736 5736 5735 5734
5787 5785 5782 5779 5775 5771 5768 5766 5764 5762 5760 5759 5756 5753 5752 5751 5750 5749 5749 5747 5747 5746 5745 5745 5744 5745 5745 5745 5744 5744 5744 5743 5742 5741 5742 5741 5740 5737 5735 5734 5734 5733 5732
5787 5783 5780 5779 5774 5769 5766 5764 5763 5761 5759 5757 5755 5753 5750 5749 5748 5748 5748 5746 5744 5744 5744 5743 5743 5742 5742 5742 5741 5741 5741 5739 5739 5738 5739 5739 5738 5737 5734 5732 5731 5731 5730
5786 5782 5779 5776 5773 5769 5766 5763 5761 5758 5757 5756 5754 5752 5750 5748 5747 5747 5746 5744 5743 5743 5742 5742 5740 5740 5738 5737 5738 5737 5738 5737 5736 5736 5736 5736 5735 5734 5734 5731 5729 5729 5728
5785 5781 5778 5774 5771 5768 5765 5762 5760 5758 5756 5755 5753 5750 5748 5747 5746 5746 5745 5742 5742 5741 5739 5738 5736 5735 5735 5735 5736 5734 5734 5734 5734 5733 5733 5733 5732 5733 5733 5732 5730 5728 5726
5783 5779 5776 5773 5770 5766 5764 5761 5757 5756 5755 5754 5752 5750 5748 5747 5745 5744 5745 5742 5741 5739 5737 5736 5735 5733 5733 5733 5731 5729 5730 5731 5731 5730 5731 5730 5730 5730 5730 5729 5729 5728 5727
5782 5779 5775 5772 5770 5767 5764 5761 5759 5756 5755 5754 5752 5749 5747 5746 5744 5745 5742 5742 5740 5737 5735 5734 5733 5733 5732 5732 5729 5726 5723 5724 5725 5729 5728 5727 5727 5727 5727 5727 5726 5724 5725
5783 5780 5778 5774 5770 5767 5764 5761 5758 5755 5753 5752 5750 5749 5747 5745 5744 5743 5742 5741 5739 5738 5735 5733 5731 5730 5729 5730 5730 5726 5720 5718 5721 5724 5723 5724 5723 5723 5724 5724 5722 5721 5721
5785 5782 5778 5774 5770 5767 5764 5761 5757 5753 5751 5750 5750 5748 5747 5744 5743 5742 5741 5739 5737 5737 5734 5733 5733 5731 5728 5727 5727 5726 5725 5723 5718 5716 5719 5721 5720 5719 5720 5721 5720 5718 5717
5785 5783 5779 5774 5770 5766 5763 5759 5756 5754 5752 5751 5749 5746 5745 5744 5742 5741 5740 5737 5735 5734 5733 5731 5730 5729 5729 5726 5726 5725 5722 5720 5720 5715 5712 5714 5717 5718 5717 5717 5716 5715 5713
5785 5782 5779 5773 5769 5766 5762 5760 5755 5753 5750 5748 5745 5744 5744 5744 5742 5740 5739 5735 5733 5732 5730 5729 5728 5727 5726 5724 5724 5724 5722 5719 5717 5716 5712 5711 5711 5714 5714 5714 5713 5712 5710